Weather History for Las Vegas, NM

Change the Weather History Date:

Saturday, August 24, 2013

  Actual Average Record
Temperature  
Mean Temperature 68 °F -  
Max Temperature 82 °F 78 °F 90 °F (1964)
Min Temperature 55 °F 51 °F 44 °F (1968)
Cooling Degree Days 2    
Growing Degree Days 18 (Base 50)    
Moisture  
Dew Point 51 °F    
Average Humidity 64    
Maximum Humidity 83    
Minimum Humidity 28    
Precipitation  
Precipitation 0.13 in - - ()
Sea Level Pressure  
Sea Level Pressure 30.05 in    
Wind  
Wind Speed 11 mph (South)    
Max Wind Speed 26 mph    
Max Gust Speed 32 mph    
Visibility 9 miles    
Events Rain , Thunderstorm    
Averages and records for this station are not official NWS values.
T = Trace of Precipitation, MM = Missing Value Source: NWS Daily Summary

Daily Weather History Graph

Daily Weather History Graph

Search for Another Location

Airport:

Trip Planner

Search our weather history database for the weather conditions in past years. The results will help you decide how hot, cold, wet, or windy it might be!

Date:

Astronomy

Aug. 24, 2013 Rise Set
Actual Time 6:26 AM MDT 7:38 PM MDT
Civil Twilight 6:00 AM MDT 8:04 PM MDT
Nautical Twilight 5:28 AM MDT 8:36 PM MDT
Astronomical Twilight 4:55 AM MDT 9:08 PM MDT
Moon 9:45 PM MDT (8/24) 10:18 AM MDT (8/24)
Length of Visible Light 14h 04m
Length of Day
13h 11m
Waning Gibbous, 84% of the Moon is Illuminated
Aug 24
Waning Gibbous
Aug 28
Last Quarter
Sep 5
New
Sep 12
First Quarter
Sep 19
Full

Hourly Weather History & Observations

Time (MDT) Temp. Dew Point Humidity Pressure Visibility Wind Dir Wind Speed Gust Speed Precip Events Conditions
12:53 AM 57.9 °F 51.1 °F 78% 29.98 in 10.0 mi SSW 9.2 mph - N/A   Clear
1:53 AM 57.0 °F 50.0 °F 77% 29.96 in 10.0 mi SSW 9.2 mph - N/A   Clear
2:53 AM 55.9 °F 48.0 °F 75% 29.96 in 10.0 mi South 10.4 mph - N/A   Clear
3:53 AM 55.0 °F 48.9 °F 80% 29.97 in 10.0 mi South 9.2 mph - N/A   Clear
4:53 AM 57.0 °F 50.0 °F 77% 29.97 in 10.0 mi South 9.2 mph - N/A   Overcast
5:53 AM 59.0 °F 50.0 °F 72% 30.00 in 10.0 mi South 8.1 mph - N/A   Mostly Cloudy
6:53 AM 55.9 °F 48.9 °F 77% 30.04 in 10.0 mi South 9.2 mph - N/A   Scattered Clouds
7:53 AM 62.1 °F 51.1 °F 67% 30.03 in 10.0 mi South 10.4 mph - N/A   Clear
8:53 AM 68.0 °F 50.0 °F 52% 30.02 in 10.0 mi South 12.7 mph - N/A   Clear
9:53 AM 72.0 °F 46.9 °F 41% 30.03 in 10.0 mi SSW 13.8 mph 20.7 mph N/A   Clear
10:53 AM 75.0 °F 46.0 °F 36% 30.02 in 10.0 mi SSW 15.0 mph - N/A   Clear
11:53 AM 77.0 °F 46.9 °F 34% 30.01 in 10.0 mi SW 9.2 mph 21.9 mph N/A   Partly Cloudy
12:53 PM 78.1 °F 45.0 °F 31% 29.99 in 10.0 mi South 16.1 mph 29.9 mph N/A   Partly Cloudy
1:53 PM 80.1 °F 44.1 °F 28% 29.97 in 10.0 mi South 17.3 mph 26.5 mph N/A   Partly Cloudy
2:53 PM 79.0 °F 46.0 °F 31% 29.97 in 10.0 mi South 20.7 mph 25.3 mph N/A   Scattered Clouds
3:53 PM 75.0 °F 46.0 °F 36% 29.98 in 10.0 mi South 21.9 mph 27.6 mph N/A   Mostly Cloudy
4:20 PM 77.0 °F 48.2 °F 36% 30.29 in 10.0 mi SSE 26.5 mph 32.2 mph N/A Thunderstorm Mostly Cloudy
4:50 PM 60.8 °F 55.4 °F 82% 30.32 in 1.8 mi SSE 17.3 mph - 0.06 in Rain , Thunderstorm Heavy Thunderstorms and Rain
4:53 PM 61.0 °F 55.0 °F 81% 30.07 in 1.5 mi SSE 10.4 mph - 0.07 in Rain , Thunderstorm Heavy Thunderstorms and Rain
4:59 PM 60.8 °F 55.4 °F 82% 30.32 in 2.0 mi ESE 9.2 mph - 0.03 in Rain Rain
5:08 PM 62.6 °F 55.4 °F 77% 30.31 in 5.0 mi SE 5.8 mph - 0.04 in Rain Rain
5:53 PM 63.0 °F 57.0 °F 81% 30.04 in 10.0 mi SW 10.4 mph - 0.06 in   Mostly Cloudy
6:53 PM 66.0 °F 54.0 °F 65% 30.03 in 10.0 mi SSW 9.2 mph - N/A   Mostly Cloudy
7:53 PM 63.0 °F 55.9 °F 78% 30.04 in 10.0 mi SSW 8.1 mph - N/A   Mostly Cloudy
8:53 PM 63.0 °F 55.9 °F 78% 30.04 in 10.0 mi SSW 8.1 mph - N/A   Overcast
9:53 PM 61.0 °F 55.9 °F 83% 30.06 in 10.0 mi SSW 8.1 mph - N/A   Mostly Cloudy
10:53 PM 60.1 °F 54.0 °F 80% 30.06 in 10.0 mi SSE 8.1 mph - N/A   Scattered Clouds
11:53 PM 59.0 °F 54.0 °F 83% 30.06 in 10.0 mi SSE 8.1 mph - N/A   Partly Cloudy